GW4987 Weather Reports


Display with metric or nautical units.
time (UTC)temp
F
wind
direction
speed
MPH
gust
MPH
rain 1hr
in
rain 24hr
in
rain mn
in
humidity
%
barometer
mb
20260510141547 68 131 2.0 2.0 0.00 0.00 0.00 23 1020.6
20260510141047 67 275 0.0 2.0 0.00 0.00 0.00 27 1020.6
20260510140547 65 200 0.0 3.0 0.00 0.00 0.00 28 1020.5
20260510140006 63 279 0.0 3.0 0.00 0.00 0.00 30 1020.4
20260510135546 63 259 3.0 3.0 0.00 0.00 0.00 29 1020.4
20260510135046 62 264 3.0 3.0 0.00 0.00 0.00 30 1020.4
20260510125007 54 264 3.0 4.0 0.00 0.00 0.00 29 1020.0
20260510124546 53 280 3.0 3.0 0.00 0.00 0.00 29 1019.9
20260510124047 53 269 3.0 4.0 0.00 0.00 0.00 29 1019.8
20260510123546 54 267 3.0 5.0 0.00 0.00 0.00 29 1019.9
20260510123046 54 260 5.0 5.0 0.00 0.00 0.00 28 1019.9
20260510122546 54 263 5.0 5.0 0.00 0.00 0.00 29 1019.9
20260510122006 53 262 5.0 5.0 0.00 0.00 0.00 29 1019.8
20260510121546 54 256 3.0 5.0 0.00 0.00 0.00 29 1019.5
20260510121047 53 267 5.0 6.0 0.00 0.00 0.00 29 1019.5
20260510120507 53 250 4.0 5.0 0.00 0.00 0.00 29 1019.7
20260510120007 53 266 5.0 6.0 0.00 0.00 0.00 29 1019.7
20260510115547 53 273 4.0 5.0 0.00 0.00 0.00 29 1019.7
20260510113547 54 276 4.0 5.0 0.00 0.00 0.00 29 1019.5
20260510113007 54 263 3.0 4.0 0.00 0.00 0.00 28 1019.5
20260510112547 55 266 4.0 5.0 0.00 0.00 0.00 27 1019.5
20260510112046 54 282 4.0 5.0 0.00 0.00 0.00 28 1019.7
20260510111507 55 276 3.0 4.0 0.00 0.00 0.00 28 1019.6
20260510111007 56 306 2.0 4.0 0.00 0.00 0.00 27 1019.7
20260510110547 56 305 3.0 4.0 0.00 0.00 0.00 26 1019.7
20260510110047 57 273 3.0 4.0 0.00 0.00 0.00 26 1019.5
20260510105546 57 295 3.0 4.0 0.00 0.00 0.00 25 1019.5
20260510105046 58 278 3.0 3.0 0.00 0.00 0.00 25 1019.4
20260510104547 58 247 2.0 4.0 0.00 0.00 0.00 24 1019.6
20260510104007 61 229 0.0 4.0 0.00 0.00 0.00 23 1019.7
20260510103546 63 267 2.0 4.0 0.00 0.00 0.00 22 1019.6
20260510103047 63 292 4.0 4.0 0.00 0.00 0.00 21 1019.5
20260510102508 63 334 3.0 4.0 0.00 0.00 0.00 21 1019.4
20260510102008 62 8 3.0 5.0 0.00 0.00 0.00 22 1019.5
20260510101547 63 9 5.0 6.0 0.00 0.00 0.00 21 1019.4
20260510101008 64 266 4.0 8.0 0.00 0.00 0.00 20 1019.2
20260510100546 65 272 4.0 6.0 0.00 0.00 0.00 20 1019.0
20260510100046 65 271 5.0 8.0 0.00 0.00 0.00 20 1019.2
20260510095546 64 284 4.0 7.0 0.00 0.00 0.00 20 1019.0
20260510095007 64 267 7.0 10.0 0.00 0.00 0.00 20 1018.9
20260510094547 64 263 6.0 9.0 0.00 0.00 0.00 20 1019.0
20260510094047 64 249 7.0 9.0 0.00 0.00 0.00 20 1019.0
20260510093546 64 262 6.0 8.0 0.00 0.00 0.00 20 1018.9
20260510093007 65 264 7.0 7.0 0.00 0.00 0.00 20 1019.2
20260510092547 65 269 7.0 8.0 0.00 0.00 0.00 20 1019.0
20260510092047 65 260 5.0 7.0 0.00 0.00 0.00 20 1019.0
20260510091547 65 259 7.0 7.0 0.00 0.00 0.00 20 1018.9
20260510091047 64 256 6.0 7.0 0.00 0.00 0.00 20 1018.9
20260510090547 64 262 6.0 7.0 0.00 0.00 0.00 20 1018.7
20260510090007 64 254 7.0 10.0 0.00 0.00 0.00 20 1018.8
20260510085547 64 261 7.0 10.0 0.00 0.00 0.00 20 1018.9
20260510084007 64 249 9.0 9.0 0.00 0.00 0.00 20 1018.9
20260510083527 65 248 7.0 8.0 0.00 0.00 0.00 21 1018.9
20260510083047 65 258 6.0 9.0 0.00 0.00 0.00 20 1019.0
20260510082546 65 263 5.0 8.0 0.00 0.00 0.00 20 1018.9
20260510082047 66 265 7.0 8.0 0.00 0.00 0.00 20 1019.0
20260510081547 66 266 6.0 8.0 0.00 0.00 0.00 20 1018.9
20260510081007 65 264 6.0 9.0 0.00 0.00 0.00 20 1018.8
20260510080547 65 257 5.0 7.0 0.00 0.00 0.00 21 1018.9
20260510080047 64 249 6.0 8.0 0.00 0.00 0.00 21 1018.9
20260510074546 64 263 5.0 9.0 0.00 0.00 0.00 21 1019.2
20260510074047 64 274 5.0 9.0 0.00 0.00 0.00 21 1018.9
20260510073547 64 237 4.0 6.0 0.00 0.00 0.00 22 1019.0
20260510073047 64 247 6.0 7.0 0.00 0.00 0.00 21 1019.0
20260510072547 64 245 4.0 7.0 0.00 0.00 0.00 21 1018.9
20260510072007 64 225 2.0 7.0 0.00 0.00 0.00 21 1018.9
20260510071546 65 234 3.0 7.0 0.00 0.00 0.00 21 1018.7
20260510071046 65 267 6.0 8.0 0.00 0.00 0.00 20 1019.0
20260510065047 66 265 5.0 6.0 0.00 0.00 0.00 20 1019.0
20260510064546 66 265 4.0 5.0 0.00 0.00 0.00 20 1018.8
20260510064047 66 229 3.0 4.0 0.00 0.00 0.00 20 1018.8
20260510062047 67 267 5.0 5.0 0.00 0.00 0.00 20 1018.7
20260510061507 67 262 4.0 5.0 0.00 0.00 0.00 20 1018.7
20260510061007 68 226 4.0 7.0 0.00 0.00 0.00 20 1018.6
20260510060546 67 265 5.0 6.0 0.00 0.00 0.00 20 1018.6
20260510060047 68 266 5.0 7.0 0.00 0.00 0.00 20 1018.6
20260510055547 67 262 4.0 6.0 0.00 0.00 0.00 20 1018.6
20260510055047 67 249 3.0 5.0 0.00 0.00 0.00 20 1018.5
20260510054547 68 268 5.0 8.0 0.00 0.00 0.00 19 1018.5
20260510054008 68 260 6.0 9.0 0.00 0.00 0.00 19 1018.4
20260510053547 68 263 9.0 9.0 0.00 0.00 0.00 19 1018.6
20260510053047 68 265 6.0 9.0 0.00 0.00 0.00 19 1018.5
20260510052508 68 264 6.0 7.0 0.00 0.00 0.00 19 1018.6
20260510052008 68 265 6.0 7.0 0.00 0.00 0.00 20 1018.4
20260510051547 68 262 4.0 8.0 0.00 0.00 0.00 19 1018.6
20260510051008 68 267 6.0 9.0 0.00 0.00 0.00 20 1018.5
20260510050547 68 268 7.0 9.0 0.00 0.00 0.00 19 1018.6
20260510050047 68 265 6.0 7.0 0.00 0.00 0.00 19 1018.5
20260510045546 68 269 5.0 7.0 0.00 0.00 0.00 19 1018.6
20260510045027 68 253 4.0 7.0 0.00 0.00 0.00 19 1018.6
20260510044546 69 271 6.0 8.0 0.00 0.00 0.00 19 1018.6
20260510044046 69 250 4.0 6.0 0.00 0.00 0.00 19 1018.5
20260510043546 69 253 6.0 6.0 0.00 0.00 0.00 19 1018.6
20260510041546 69 260 4.0 9.0 0.00 0.00 0.00 19 1018.4
20260510041046 69 266 5.0 8.0 0.00 0.00 0.00 19 1018.5
20260510040546 69 261 5.0 5.0 0.00 0.00 0.00 19 1018.5
20260510040007 69 242 4.0 5.0 0.00 0.00 0.00 20 1018.0
20260510035547 69 237 3.0 4.0 0.00 0.00 0.00 19 1018.1
20260510035047 69 258 4.0 5.0 0.00 0.00 0.00 19 1018.2
20260510030047 71 257 5.0 7.0 0.00 0.00 0.00 20 1017.7
20260510025508 71 241 3.0 6.0 0.00 0.00 0.00 20 1017.6
20260510025047 71 279 5.0 6.0 0.00 0.00 0.00 20 1017.5
20260510024547 71 256 5.0 8.0 0.00 0.00 0.00 20 1017.7
20260510024047 71 254 3.0 5.0 0.00 0.00 0.00 20 1017.7
20260510023546 71 268 3.0 5.0 0.00 0.00 0.00 20 1017.6
20260510023046 72 240 5.0 5.0 0.00 0.00 0.00 20 1017.7
20260510022546 73 248 4.0 9.0 0.00 0.00 0.00 19 1017.5
20260510022008 73 240 4.0 7.0 0.00 0.00 0.00 19 1017.6
20260510021547 74 222 8.0 9.0 0.00 0.00 0.00 19 1017.6
20260510021047 74 225 3.0 8.0 0.00 0.00 0.00 19 1017.2
20260510020507 75 252 3.0 6.0 0.00 0.00 0.00 19 1017.3
20260510020046 76 220 6.0 11.0 0.00 0.00 0.00 18 1017.2
20260510015546 76 268 4.0 9.0 0.00 0.00 0.00 18 1017.4
20260510015007 77 220 5.0 13.0 0.00 0.00 0.00 18 1017.2
20260510014546 77 224 6.0 7.0 0.00 0.00 0.00 18 1017.3
20260510014046 77 205 7.0 10.0 0.00 0.00 0.00 18 1017.1
20260510013547 78 260 9.0 13.0 0.00 0.00 0.00 17 1017.0
20260510013007 78 249 8.0 12.0 0.00 0.00 0.00 17 1017.2
20260510012546 79 233 4.0 7.0 0.00 0.00 0.00 17 1017.2
20260510012046 79 211 9.0 9.0 0.00 0.00 0.00 17 1017.1
20260510011546 79 232 14.0 16.0 0.00 0.00 0.00 17 1017.1
20260510011007 78 258 15.0 20.0 0.00 0.00 0.00 17 1017.0
20260510010546 79 249 7.0 13.0 0.00 0.00 0.00 17 1017.0
20260510010047 79 222 9.0 12.0 0.00 0.00 0.00 17 1016.8
20260510005546 80 219 7.0 12.0 0.00 0.00 0.00 17 1016.8
20260510005046 80 216 13.0 15.0 0.00 0.00 0.00 17 1017.0
20260510004547 80 243 7.0 13.0 0.00 0.00 0.00 17 1017.1
20260510004008 80 265 10.0 19.0 0.00 0.00 0.00 17 1017.0
20260510003546 80 193 9.0 14.0 0.00 0.00 0.00 17 1017.2
20260510003047 80 271 7.0 12.0 0.00 0.00 0.00 17 1017.0
20260510002507 80 215 7.0 17.0 0.00 0.00 0.00 17 1017.1
20260510002007 80 254 13.0 15.0 0.00 0.00 0.00 17 1017.2
20260510001546 80 248 5.0 22.0 0.00 0.00 0.00 17 1017.1
20260510001007 80 238 10.0 18.0 0.00 0.00 0.00 17 1017.1
20260510000546 80 271 11.0 20.0 0.00 0.00 0.00 17 1017.2
20260510000046 80 216 17.0 20.0 0.00 0.00 0.00 17 1017.2
20260509235546 81 264 8.0 13.0 0.00 0.00 0.00 16 1017.1
20260509235046 81 219 7.0 16.0 0.00 0.00 0.00 17 1017.2
20260509233008 81 267 9.0 15.0 0.00 0.00 0.00 16 1017.2
20260509232546 82 219 7.0 12.0 0.00 0.00 0.00 15 1017.1
20260509232047 82 214 8.0 17.0 0.00 0.00 0.00 15 1017.3
20260509231547 80 241 5.0 8.0 0.00 0.00 0.00 16 1017.2
20260509231047 80 214 8.0 17.0 0.00 0.00 0.00 16 1017.4
20260509230547 81 227 5.0 17.0 0.00 0.00 0.00 16 1017.4
20260509230008 81 251 5.0 16.0 0.00 0.00 0.00 16 1017.5
20260509225546 81 267 8.0 20.0 0.00 0.00 0.00 16 1017.6
20260509225046 80 269 9.0 20.0 0.00 0.00 0.00 16 1017.6
20260509224508 81 218 13.0 18.0 0.00 0.00 0.00 16 1017.4
20260509224008 82 267 11.0 14.0 0.00 0.00 0.00 15 1017.3
20260509223546 82 227 8.0 15.0 0.00 0.00 0.00 15 1017.5
20260509223008 81 230 7.0 15.0 0.00 0.00 0.00 16 1017.6
20260509222546 80 260 6.0 20.0 0.00 0.00 0.00 16 1017.5
20260509222046 82 257 8.0 9.0 0.00 0.00 0.00 15 1017.7
20260509221546 81 225 8.0 17.0 0.00 0.00 0.00 16 1017.8
20260509221047 80 238 7.0 22.0 0.00 0.00 0.00 16 1017.9
20260509220546 80 204 20.0 22.0 0.00 0.00 0.00 15 1018.0
20260509220047 81 226 9.0 20.0 0.00 0.00 0.00 15 1017.9
20260509214047 81 269 10.0 16.0 0.00 0.00 0.00 15 1018.1
20260509213547 80 222 11.0 25.0 0.00 0.00 0.00 16 1018.2
20260509213047 82 261 18.0 22.0 0.00 0.00 0.00 15 1018.0
20260509212546 81 211 9.0 17.0 0.00 0.00 0.00 16 1018.2
20260509212007 82 202 9.0 18.0 0.00 0.00 0.00 16 1018.0
20260509211547 81 212 11.0 15.0 0.00 0.00 0.00 15 1018.2
20260509211047 80 320 8.0 20.0 0.00 0.00 0.00 15 1018.1
20260509210507 81 275 15.0 22.0 0.00 0.00 0.00 15 1018.2
20260509210007 80 235 10.0 14.0 0.00 0.00 0.00 16 1018.4
20260509205546 80 212 12.0 15.0 0.00 0.00 0.00 15 1018.3
20260509205008 80 275 15.0 17.0 0.00 0.00 0.00 16 1018.6
20260509204547 81 243 20.0 21.0 0.00 0.00 0.00 16 1018.5
20260509204047 80 193 5.0 15.0 0.00 0.00 0.00 16 1018.6
20260509203547 80 286 3.0 8.0 0.00 0.00 0.00 14 1018.7
20260509203007 80 275 6.0 16.0 0.00 0.00 0.00 15 1018.6
20260509202546 81 209 9.0 22.0 0.00 0.00 0.00 15 1018.6
20260509202047 82 302 7.0 16.0 0.00 0.00 0.00 15 1018.6
20260509201546 81 295 7.0 17.0 0.00 0.00 0.00 15 1018.6
20260509201007 79 268 8.0 19.0 0.00 0.00 0.00 14 1018.7
20260509200547 82 256 11.0 19.0 0.00 0.00 0.00 14 1018.8
20260509200046 80 156 6.0 20.0 0.00 0.00 0.00 15 1018.7
20260509195546 81 244 12.0 20.0 0.00 0.00 0.00 15 1018.8
20260509195047 82 252 14.0 24.0 0.00 0.00 0.00 14 1018.9
20260509193047 80 240 7.0 15.0 0.00 0.00 0.00 14 1018.9
20260509192508 79 261 6.0 20.0 0.00 0.00 0.00 16 1018.9
20260509190546 79 277 10.0 18.0 0.00 0.00 0.00 16 1019.0
20260509190046 80 246 10.0 12.0 0.00 0.00 0.00 15 1019.3
20260509185547 80 284 5.0 11.0 0.00 0.00 0.00 15 1019.0
20260509185007 82 269 7.0 12.0 0.00 0.00 0.00 15 1019.3
20260509184546 80 197 9.0 20.0 0.00 0.00 0.00 16 1019.2
20260509184047 80 211 14.0 15.0 0.00 0.00 0.00 15 1019.2
20260509182047 81 193 7.0 23.0 0.00 0.00 0.00 15 1019.4
20260509181547 80 300 15.0 25.0 0.00 0.00 0.00 15 1019.3
20260509181047 79 267 14.0 21.0 0.00 0.00 0.00 16 1019.4
20260509175046 79 307 8.0 10.0 0.00 0.00 0.00 16 1019.4
20260509174509 79 269 12.0 16.0 0.00 0.00 0.00 16 1019.4
20260509174008 80 266 10.0 11.0 0.00 0.00 0.00 16 1019.4
20260509173547 80 147 2.0 7.0 0.00 0.00 0.00 15 1019.6
20260509173008 79 219 8.0 17.0 0.00 0.00 0.00 15 1019.4
20260509171008 80 284 2.0 5.0 0.00 0.00 0.00 15 1019.3
20260509170546 79 318 9.0 10.0 0.00 0.00 0.00 15 1019.5
20260509170047 80 316 8.0 8.0 0.00 0.00 0.00 15 1019.4
20260509165508 80 307 12.0 15.0 0.00 0.00 0.00 15 1019.3
20260509165008 80 35 5.0 7.0 0.00 0.00 0.00 16 1019.5
20260509164547 80 19 5.0 8.0 0.00 0.00 0.00 17 1019.5
20260509164047 79 46 2.0 9.0 0.00 0.00 0.00 17 1019.4
20260509163527 79 301 5.0 7.0 0.00 0.00 0.00 17 1019.5
20260509163047 79 25 3.0 13.0 0.00 0.00 0.00 17 1019.3
20260509162547 79 334 5.0 8.0 0.00 0.00 0.00 17 1019.2
20260509162007 79 60 9.0 9.0 0.00 0.00 0.00 17 1019.3
20260509161546 78 23 4.0 8.0 0.00 0.00 0.00 17 1019.2
20260509161046 78 3 5.0 7.0 0.00 0.00 0.00 17 1019.4
20260509160546 79 353 3.0 6.0 0.00 0.00 0.00 17 1019.3
20260509160008 78 26 5.0 8.0 0.00 0.00 0.00 18 1019.4
20260509155547 78 34 4.0 7.0 0.00 0.00 0.00 19 1019.4
20260509155008 78 323 6.0 6.0 0.00 0.00 0.00 19 1019.3
20260509154546 78 346 4.0 9.0 0.00 0.00 0.00 19 1019.4
20260509154046 77 287 6.0 8.0 0.00 0.00 0.00 17 1019.2
20260509153547 79 318 0.0 5.0 0.00 0.00 0.00 17 1019.4
20260509153007 78 70 5.0 6.0 0.00 0.00 0.00 18 1019.2
20260509152546 78 19 3.0 5.0 0.00 0.00 0.00 18 1019.2
20260509152047 78 25 4.0 7.0 0.00 0.00 0.00 20 1019.3
20260509151507 76 63 3.0 5.0 0.00 0.00 0.00 19 1019.0
20260509151007 75 297 3.0 8.0 0.00 0.00 0.00 19 1019.2
20260509150547 75 301 4.0 6.0 0.00 0.00 0.00 18 1019.2
20260509150047 74 290 4.0 9.0 0.00 0.00 0.00 19 1019.3
20260509145547 74 269 4.0 8.0 0.00 0.00 0.00 19 1019.4
20260509145046 74 264 7.0 10.0 0.00 0.00 0.00 19 1019.2
20260509144547 74 241 4.0 10.0 0.00 0.00 0.00 20 1019.3
20260509144008 73 328 4.0 5.0 0.00 0.00 0.00 20 1019.3
20260509143547 73 271 5.0 6.0 0.00 0.00 0.00 21 1019.2
20260509143047 73 120 2.0 3.0 0.00 0.00 0.00 25 1019.2
20260509142508 74 86 3.0 4.0 0.00 0.00 0.00 25 1019.3
20260509142008 73 75 3.0 3.0 0.00 0.00 0.00 23 1019.0